Regional Weather Roundup
Issued by NWS

Home | Current Version | Previous Version | Graphics & Text | Print | Product List | Glossary On
Versions: 1 2 3 4 5 6 7 8 9 10 11 12 13 14 15 16 17 18 19 20 21 22 23 24 25 26 27 28 29 30 31 32 33 34 35 36 37 38 39 40 41 42 43 44 45 46 47 48 49 50
000
ASUS43 KLMK 271110
RWRKY
KENTUCKY REGIONAL WEATHER ROUNDUP
NATIONAL WEATHER SERVICE LOUISVILLE KY
700 AM EDT SAT AUG 27 2016

NOTE "FAIR" INDICATES FEW OR NO CLOUDS BELOW 12,000 FEET
WITH NO SIGNIFICANT WEATHER AND/OR OBSTRUCTIONS TO VISIBILITY.

KYZ001>023-026-027-061>063-070>075-271200-
WESTERN AND SOUTH CENTRAL KENTUCKY

CITY           SKY/WX    TMP DP  RH WIND       PRES   REMARKS
PADUCAH        PTCLDY    71  69  93 NW3       30.04R
HENDERSON      CLOUDY    72  68  88 CALM      30.03R
OWENSBORO      CLOUDY    73  73 100 CALM      30.04S
HOPKINSVILLE   PTCLDY    71  71  97 SE5       30.06R
BOWLING GREEN  PTCLDY    73  70  90 W3        30.06R
GLASGOW        CLEAR     73  73 100 E6        30.06S
$$

KYZ024-025-028>034-038-045-046-053-271200-
NORTH CENTRAL KENTUCKY

CITY           SKY/WX    TMP DP  RH WIND       PRES   REMARKS
LOUISVILLE/SDF CLOUDY    77  72  84 CALM      30.06R
LOUISVILLE/LOU CLOUDY    76  72  87 NW3       30.06F
FORT KNOX      PTCLDY    70  70  99 NW3       30.06R
$$

KYZ035>037-039>044-047>052-055>060-089>105-271200-
NORTHEAST KENTUCKY

CITY           SKY/WX    TMP DP  RH WIND       PRES   REMARKS
LEXINGTON      CLOUDY    75  69  81 E5        30.10R
COVINGTON      NOT AVBL
FRANKFORT      MOCLDY    72  69  90 CALM      30.08R FOG
$$

KYZ054-064>069-076>088-106>120-271200-
SOUTHEAST KENTUCKY

CITY           SKY/WX    TMP DP  RH WIND       PRES   REMARKS
JACKSON        CLEAR     73  69  87 CALM      30.13R
LONDON         CLEAR     69  66  90 NE3       30.12R
SOMERSET       PTCLDY    68  68 100 CALM      30.12R FOG
MIDDLESBORO    FOG       67  67 100 CALM      30.14R VSB 1/4
MONTICELLO     CLOUDY   N/A N/A N/A CALM      30.12R
$$





USA.gov is the U.S. government's official web portal to all federal, state and local government web resources and services.